Location: Nasgenstadt
(48.2786°N, 9.7553°E)
Time: 14:57:15
(UTC+02:00)

ISS - Pass Details

Date: 20 May 2021
Orbit: 419 x 422 km, 51.6° (Epoch: 25 June)

Event Time Altitude Azimuth Distance (km) Brightness Sun altitude
Rises 22:46:37 0° 273° (W) 2,370 0.7 -13.7°
Reaches altitude 10° 22:48:46 10° 279° (W) 1,506 -0.3 -13.9°
Maximum altitude 22:52:03 46° 355° (N) 574 -2.7 -14.2°
Drops below altitude 10° 22:55:20 10° 70° (ENE) 1,509 -1.1 -14.5°
Enters shadow 22:56:52 - 76° (ENE) 2,122 -0.4 -14.7°
